sat.trackr.live / text

‹ back to catalog

STARLINK-11588 [DTC]

NORAD 63319 · 2025-057N

PAYLOAD ACTIVE UNKNOWN

§ Identity

Operator
Country
US
Launch date
2025-03-18
Launch site
AFETR
Launch vehicle
Mass (kg)
RCS (m²)

Purposes: comms

External: N2YO · Heavens-Above · Gunter

§ Orbital elements

Epoch: 2026-09-20T19:03:07.346592Z

Period
91.69 min
Inclination
42.9999°
Eccentricity
0.0001537
Mean motion
15.70572805 rev/d
Perigee alt
356.2 km
Apogee alt
358.3 km
Semi-major
6,735.4 km
B*
3.5657e-3
RAAN
168.3941°
Arg perigee
240.0997°
Mean anomaly
119.9718°
Rev number
8,786

§ Raw data

STARLINK-11588 [DTC]1 63319U 25057N   26263.79383503  .00479088  00000+0  35657-2 0  99912 63319  42.9999 168.3941 0001537 240.0997 119.9718 15.70572805 87860

JSON: /api/v1/satellites/63319 · /tle

For live sub-satellite position, see the globe view (requires WebGL).

§ Visibility from observer

Set your observer location to see the next 7 days of passes ≥ 10°. The values pass through the URL so the page stays shareable.

No JS? Fill the form by hand. The geolocation button needs JavaScript.